Meteopurmerend
purmerend
Purmerend - Baaienwijk



My webcam  My webcam


waarschuwing voor Onweer Meer informatie blitzortung!


Regen radar Meer informatie rain snow radar


Bezoek onze andere website:

CandyAppleRed WebdesignWebdesign Purmerend Candy Apple Red

MeteopurmerendBlog

Template documentation
and downloads



Onweer van: 26-07-2021 13:00 tot: 21:00 waarschuwing voor: Onweer niveau: Geel info button
Enkele onweersbuien, lokaal met hagel en veel neerslag in korte tijd.Kans op blikseminslag, hagel en veel neerslag in korte tijd.Verkeer en buitenactiviteiten kunnen hinder ondervinden.Mijd open water en open gebied, schuil niet onder bomen.Volg weerberichten en waarschuwingen.

15 daagse weersverwachting Södertälje (SE)

  • Overzicht
  • Per uur
  • 15 dagen
  • Extra
  • Vergelijk
  • Kaarten
  • Dagkaart
  • Meer »
  • Info
  • Statistieken
  • Directe link
    Temp 6h Neerslag Wind  
 04:26     21:28    Daglengte: 17:02 Vandaag
20:00
23°
 
3
 04:28     21:25    Daglengte: 16:57 Morgen
02:00
19°
 
2
08:00
22°
 
3
14:00
27°
 
5
20:00
23°
 
4
 04:30     21:23    Daglengte: 16:53 Woensdag 28 Jul
02:00
19°
 
2
08:00
20°
 
2
14:00
22°
31.7 mm
4
warningclass
20:00
22°
38.1 mm
2
 04:33     21:21    Daglengte: 16:48 Donderdag 29 Jul
02:00
17°
10.4 mm
2
08:00
19°
 
3
14:00
21°
63.2 mm
4
Locatie info
Region: Stockholms län
Latitude: 59.1972°N
Longitude: 17.6240°E
29 masl
Postcode: 151 73
Temp/Neerslag /Baro Onweer/Dauwpunt
    Temp Baro 1h Neerslag Dauwpunt Wind UV Bewolking  
 04:26     21:28    Daglengte: 17:02 Vandaag
17:00
26°
1017.2 hPa   12.4°
4
Windvlaag: 5 m/s
39%
18:00
25°
1016.9 hPa   12.5°
4
Windvlaag: 4.5 m/s
42%
19:00
24°
1016.8 hPa   12.9°
3
Windvlaag: 3.9 m/s
57%
20:00
23°
1016.6 hPa   13.5°
3
Windvlaag: 3.6 m/s
68%
21:00
21°
1016.6 hPa   14.7°
3
Windvlaag: 3.1 m/s
63%
22:00
20°
1016.6 hPa   16.3°
2
Windvlaag: 2.4 m/s
48%
23:00
20°
1016.7 hPa   17.7°
2
Windvlaag: 2.3 m/s
52%
 04:28     21:25    Daglengte: 16:57 Morgen
00:00
19°
1016.4 hPa   18.4°
2
Windvlaag: 2.2 m/s
47%
01:00
19°
1016.0 hPa   18.4°
2
Windvlaag: 1.6 m/s
14%
02:00
19°
1015.5 hPa   18.2°
2
Windvlaag: 1.1 m/s
16%
03:00
19°
1015.0 hPa   18.2°
2
Windvlaag: 0.3 m/s
15%
04:00
19°
1014.6 hPa   18.7°
2
Windvlaag: 0.2 m/s
23%
05:00
19°
1014.1 hPa   18.7°
3
Windvlaag: 0.6 m/s
14%
06:00
20°
1013.8 hPa   18.9°
3
Windvlaag: 0.8 m/s
28%
07:00
21°
1013.4 hPa   19.3°
3
Windvlaag: 0.7 m/s
45%
08:00
22°
1013.2 hPa   18.7°
3
Windvlaag: 1.2 m/s
53%
09:00
24°
1013.1 hPa   17.7°
4
Windvlaag: 2 m/s
46%
10:00
26°
1012.8 hPa   15.2°
4
Windvlaag: 2.9 m/s
31%
11:00
28°
Voelt als: 27.4°
1012.5 hPa   13.9°
4
Windvlaag: 3.7 m/s
42%
12:00
27°
Voelt als: 27.1°
1012.1 hPa   11.5°
5
Windvlaag: 3.9 m/s
58%
13:00
28°
Voelt als: 27.4°
1011.9 hPa   13.5°
5
Windvlaag: 5.7 m/s
59%
14:00
27°
1011.6 hPa   14.8°
5
Windvlaag: 6.2 m/s
46%
15:00
27°
1011.4 hPa   14.3°
5
Windvlaag: 6.4 m/s
76%
16:00
27°
1011.3 hPa   13.5°
5
Windvlaag: 8.4 m/s
77%
17:00
26°
1011.2 hPa   12.3°
5
Windvlaag: 8.9 m/s
83%
18:00
25°
1011.0 hPa   10.8°
5
Windvlaag: 5.8 m/s
81%
19:00
24°
1010.6 hPa   11.4°
4
Windvlaag: 5 m/s
80%
20:00
23°
1010.3 hPa   12.4°
4
Windvlaag: 3.5 m/s
81%
21:00
22°
1010.1 hPa   14.7°
3
Windvlaag: 2.5 m/s
80%
22:00
21°
1009.9 hPa
16%
15.0°
2
Windvlaag: 2.1 m/s
86%
23:00
21°
1009.5 hPa
33%
15.3°
2
Windvlaag: 1.4 m/s
86%
 04:30     21:23    Daglengte: 16:53 Woensdag 28 Jul
00:00
20°
1009.2 hPa
32%
16.1°
2
Windvlaag: 1.7 m/s
85%
01:00
20°
1008.7 hPa
20%
16.6°
2
Windvlaag: 2.7 m/s
84%
02:00
19°
1008.2 hPa
49%
17.1°
2
Windvlaag: 2.6 m/s
83%
03:00
19°
1007.6 hPa
82%
17.6°
2
Windvlaag: 2.3 m/s
78%
04:00
19°
1007.2 hPa
82%
18.3°
2
Windvlaag: 3 m/s
72%
05:00
19°
1006.7 hPa
82%
18.6°
2
Windvlaag: 2.2 m/s
66% warningclass
06:00
19°
1006.5 hPa
82%
18.9°
2
Windvlaag: 2 m/s
66% warningclass
07:00
19°
1006.1 hPa
82%
18.9°
2
Windvlaag: 1.7 m/s
82%
08:00
20°
1005.7 hPa
82%
19.3°
2
Windvlaag: 1.6 m/s
71%
09:00
20°
1005.7 hPa 6.4 mm
82%
19.3°
2
Windvlaag: 4.3 m/s
62%
10:00
21°
1005.4 hPa
82%
19.5°
2
Windvlaag: 4.7 m/s
64%
11:00
21°
1003.8 hPa 6.2 mm
100%
17.8°
3
Windvlaag: 5.5 m/s
96%
12:00
22°
1003.8 hPa 6.2 mm
100%
17.5°
4
Windvlaag: 5 m/s
85% warningclass
13:00
22°
1003.8 hPa 6.5 mm
100%
17.9°
4
Windvlaag: 5.2 m/s
73% warningclass
14:00
22°
1003.8 hPa 6.4 mm
96%
17.2°
4
Windvlaag: 5.6 m/s
64% warningclass
15:00
22°
1003.7 hPa 6.3 mm
92%
15.4°
5
Windvlaag: 5.6 m/s
67%
16:00
23°
1003.6 hPa 10.5 mm
34%
15.7°
4
Windvlaag: 4.1 m/s
82%
17:00
23°
1003.6 hPa 10.5 mm
24%
15.6°
4
Windvlaag: 4.1 m/s
57%
18:00
23°
1003.4 hPa 10.8 mm
22%
15.7°
4
Windvlaag: 5.6 m/s
48%
19:00
22°
1003.0 hPa
32%
13.9°
3
Windvlaag: 5.5 m/s
37%
20:00
22°
1002.7 hPa
31%
15.1°
2
Windvlaag: 4.5 m/s
25%
21:00
20°
1002.7 hPa
29%
16.0°
2
Windvlaag: 3.9 m/s
18%
22:00
20°
1002.7 hPa 10.4 mm
39%
14.7°
2
Windvlaag: 3.4 m/s
19%
23:00
19°
1002.6 hPa
34%
14.9°
2
Windvlaag: 3.7 m/s
20%
 04:33     21:21    Daglengte: 16:48 Donderdag 29 Jul
00:00
18°
1002.5 hPa
21%
15.8°
2
Windvlaag: 3.3 m/s
56%
01:00
18°
1002.7 hPa
21%
15.9°
2
Windvlaag: 3.5 m/s
57%
02:00
17°
1002.4 hPa
21%
15.6°
2
Windvlaag: 3.3 m/s
60%
03:00
17°
1002.0 hPa
21%
15.5°
2
Windvlaag: 3.4 m/s
44%
04:00
16°
1001.6 hPa
21%
15.1°
2
Windvlaag: 3.4 m/s
58%
05:00
16°
1001.5 hPa
21%
14.6°
2
Windvlaag: 3 m/s
55%
06:00
17°
1001.7 hPa
21%
14.4°
2
Windvlaag: 2.7 m/s
56%
07:00
18°
1001.3 hPa
21%
14.6°
2
Windvlaag: 3.7 m/s
63%
08:00
19°
1001.3 hPa
24%
14.4°
3
Windvlaag: 4.2 m/s
56%
09:00
19°
998.3 hPa
72%
13.8°
3
Windvlaag: 7.4 m/s
84%
10:00
20°
997.8 hPa
80%
13.2°
3
Windvlaag: 7.5 m/s
72%
11:00
20°
997.7 hPa 10.4 mm
100%
12.6°
4
Windvlaag: 8.2 m/s
66%
12:00
20°
997.5 hPa 10.9 mm
100%
12.4°
4
Windvlaag: 6.9 m/s
95% warningclass
13:00
20°
997.2 hPa 10.7 mm
100%
13.6°
4
Windvlaag: 7 m/s
34%
14:00
21°
996.6 hPa 10.6 mm
100%
13.6°
4
Windvlaag: 7.3 m/s
81%
Temp/Neerslag /Baro Onweer/Dauwpunt
    Temp Baro Neerslag Dauwpunt Wind Bewolking  
 04:26     21:28    Daglengte: 17:02 Vandaag
17:00
26°
1017.2 hPa   12.4°
4
39%
20:00
23°
1016.6 hPa   13.5°
3
68%
23:00
20°
1016.7 hPa   17.7°
2
52%
 04:28     21:25    Daglengte: 16:57 Morgen
02:00
19°
1015.5 hPa   18.2°
2
16%
05:00
19°
1014.1 hPa   18.7°
3
14%
08:00
22°
1013.2 hPa   18.7°
3
53%
11:00
28°
Voelt als: 27.4°
1012.5 hPa   13.9°
4
42%
14:00
27°
1011.6 hPa   14.8°
5
46%
17:00
26°
1011.2 hPa   12.3°
5
83%
20:00
23°
1010.3 hPa   12.4°
4
81%
23:00
21°
1009.5 hPa   15.3°
2
86%
 04:30     21:23    Daglengte: 16:53 Woensdag 28 Jul
02:00
19°
1008.2 hPa   17.1°
2
83%
05:00
19°
1006.7 hPa   18.6°
2
66% warningclass
08:00
20°
1005.7 hPa   19.3°
2
71%
11:00
21°
1003.8 hPa 12.7 mm 17.8°
3
96%
14:00
22°
1003.8 hPa 19.1 mm 17.2°
4
64% warningclass
17:00
23°
1003.6 hPa 27.3 mm 15.6°
4
57%
20:00
22°
1002.7 hPa 10.8 mm 15.1°
2
25%
23:00
19°
1002.6 hPa 10.4 mm 14.9°
2
20%
 04:33     21:21    Daglengte: 16:48 Donderdag 29 Jul
02:00
17°
1002.4 hPa   15.6°
2
60%
05:00
16°
1001.5 hPa   14.6°
2
55%
08:00
19°
1001.3 hPa   14.4°
3
56%
11:00
20°
997.7 hPa 10.4 mm 12.6°
4
66%
14:00
21°
996.6 hPa 32.2 mm 13.6°
4
81%
17:00
17°
997.8 hPa 8.7 mm 15.5°
6
1%
20:00
16°
996.7 hPa 9.3 mm 12.3°
4
1%
23:00
13°
995.6 hPa 9.9 mm 11.0°
5
1%
 04:35     21:19    Daglengte: 16:44 Vrijdag 30 Jul
02:00
12°
993.7 hPa 10.0 mm 10.3°
4
1%
05:00
11°
992.7 hPa 10.1 mm 10.4°
4
1%
08:00
13°
991.4 hPa 11.6 mm 11.5°
3
1%
11:00
14°
991.5 hPa 13.3 mm 11.0°
3
1%
14:00
16°
991.9 hPa 14.7 mm 13.3°
5
1%
17:00
19°
992.6 hPa 15.0 mm 12.0°
4
1%
20:00
18°
993.3 hPa 15.1 mm 13.6°
3
1%
23:00
15°
994.5 hPa 15.2 mm 13.5°
3
0%
 04:37     21:16    Daglengte: 16:39 Zaterdag 31 Jul
02:00
14°
995.7 hPa 15.2 mm 12.3°
3
0%
05:00
13°
996.9 hPa 15.2 mm 11.3°
2
0%
08:00
16°
998.2 hPa 15.2 mm 9.8°
2
0%
11:00
20°
998.8 hPa 15.2 mm 10.4°
3
1%
14:00
22°
998.8 hPa 15.2 mm 9.5°
3
1%
17:00
22°
998.9 hPa 15.2 mm 11.2°
1
1%
20:00
20°
999.0 hPa 15.2 mm 11.6°
2
1%
23:00
16°
999.1 hPa 15.2 mm 10.9°
2
0%
 04:39     21:14    Daglengte: 16:35 Zondag 01 Aug
02:00
16°
998.5 hPa 15.2 mm 11.8°
2
0%
05:00
14°
997.3 hPa 15.2 mm 11.8°
2
1%
08:00
15°
996.5 hPa 16.5 mm 12.9°
2
1%
11:00
15°
996.4 hPa 21.8 mm 13.9°
2
1%
14:00
17°
997.1 hPa 22.9 mm 14.2°
3
1%
17:00
18°
997.7 hPa 23.6 mm 14.2°
4
1%
20:00
16°
998.2 hPa 24.8 mm 12.9°
3
1%
23:00
13°
999.0 hPa 24.9 mm 10.9°
4
1%
 04:41     21:11    Daglengte: 16:30 Maandag 02 Aug
02:00
12°
998.6 hPa 24.9 mm 9.9°
4
0%
05:00
11°
998.3 hPa 24.9 mm 9.2°
4
0%
08:00
14°
997.5 hPa 24.9 mm 10.3°
4
0%
11:00
18°
996.9 hPa 24.9 mm 10.1°
5
0%
14:00
19°
996.5 hPa 49.8 mm 10.7°
5
1%
20:00
16°
997.4 hPa 51.6 mm 9.5°
6
1%
 04:44     21:09    Daglengte: 16:25 Dinsdag 03 Aug
02:00
10°
1000.4 hPa 51.9 mm 8.2°
3
0%
08:00
13°
1001.7 hPa 51.9 mm 7.9°
3
0%
14:00
18°
1001.2 hPa 53.0 mm 7.8°
6
1%
20:00
16°
1003.5 hPa 53.9 mm 6.8°
4
1%
 04:46     21:07    Daglengte: 16:21 Woensdag 04 Aug
02:00
11°
1005.3 hPa 54.1 mm 9.2°
4
0%
08:00
15°
1006.3 hPa 54.2 mm 11.4°
5
0%
14:00
19°
1005.8 hPa 55.4 mm 12.8°
5
1%
20:00
16°
1003.2 hPa 59.2 mm 14.0°
5
1%
 04:48     21:04    Daglengte: 16:16 Donderdag 05 Aug
02:00
15°
1001.3 hPa 60.8 mm 13.5°
5
1%
08:00
16°
998.6 hPa 61.3 mm 13.2°
5
1%
14:00
20°
1007.6 hPa 1.3 mm 11.4°
2
64%
20:00
17°
1007.1 hPa 1.2 mm 12.8°
2
69%
 04:50     21:02    Daglengte: 16:12 Vrijdag 06 Aug
02:00
14°
1007.4 hPa 0.4 mm 11.8°
1
56%
08:00
16°
1007.2 hPa 0.3 mm 12.2°
0
66%
14:00
20°
1006.8 hPa 1.0 mm 11.5°
2
66%
20:00
18°
1005.7 hPa 1.5 mm 12.9°
1
67%
 04:53     20:59    Daglengte: 16:06 Zaterdag 07 Aug
02:00
15°
1005.5 hPa 0.6 mm 12.4°
0
63%
08:00
16°
1004.8 hPa 1.0 mm 12.9°
1
71%
14:00
20°
1004.7 hPa 1.5 mm 12.6°
1
74%
20:00
18°
1004.5 hPa 0.5 mm 13.0°
1
65%
 04:55     20:56    Daglengte: 16:01 Zondag 08 Aug
02:00
15°
1004.5 hPa 0.6 mm 12.6°
1
56%
08:00
17°
1004.2 hPa 1.4 mm 12.9°
1
61%
14:00
21°
1004.7 hPa 1.2 mm 12.0°
1
57%
20:00
18°
1004.9 hPa 0.9 mm 12.9°
1
62%
 04:57     20:54    Daglengte: 15:57 Maandag 09 Aug
02:00
14°
1005.6 hPa 0.6 mm 12.2°
1
59%
08:00
16°
1005.9 hPa 0.2 mm 12.7°
1
64%
14:00
20°
1006.5 hPa 1.2 mm 12.7°
1
62%
20:00
17°
1006.5 hPa 0.7 mm 12.7°
1
61%
 05:00     20:51    Daglengte: 15:51 Dinsdag 10 Aug
02:00
14°
1007.2 hPa 0.6 mm 11.7°
1
61%
08:00
16°
1007.3 hPa 0.6 mm 12.0°
1
63%
14:00
20°
1008.1 hPa 0.9 mm 11.6°
1
65%
  CAPE Lifted Index Hail Supercell Tornado SRH 3km CL BTM PRES CL TOP PRES Swiss DWD icon SMHI TS
 04:26     21:28    Daglengte: 17:02 Vandaag
17:00 0 J/kg 2.0 K 0 % 0 % 0 % 0 m²/s² 0 0 6.65 3
18:00 0 J/kg 1.8 K 0 % 0 % 0 % 0 m²/s² 0 0 6.6 3
19:00 0 J/kg 1.8 K 0 % 0 % 0 % 0 m²/s² 0 0 6.57 3
20:00 0 J/kg 1.1 K 0 % 0 % 0 % 0 m²/s² 0 0 6.26 3
21:00 0 J/kg 1.0 K 0 % 0 % 0 % 0 m²/s² 0 0 6.61 3
22:00 0 J/kg 1.4 K 0 % 0 % 0 % 0 m²/s² 0 0 7.01 2
23:00 0 J/kg 1.0 K 0 % 0 % 0 % 0 m²/s² 0 0 6.46 2
 04:28     21:25    Daglengte: 16:57 Morgen
00:00 0 J/kg 1.3 K 0 % 0 % 0 % 0 m²/s² 0 0 6.61 2
01:00 0 J/kg -0.1 K 0 % 0 % 0 % 0 m²/s² 0 0 2.9 1
02:00 2 J/kg -0.7 K 0 % 0 % 0 % 0 m²/s² 0 0 1.13 2
03:00 0 J/kg -0.6 K 0 % 0 % 0 % 0 m²/s² 0 0 0.45 2
04:00 0 J/kg -0.7 K 0 % 0 % 0 % 0 m²/s² 0 0 0.35 1
05:00 40 J/kg -1.2 K 0 % 0 % 0 % 0 m²/s² 0 0 0.12 2
06:00 156 J/kg -1.2 K 0 % 0 % 0 % 0 m²/s² 0 0 0.21 3
07:00 429 J/kg -1.9 K 0 % 0 % 0 % 0 m²/s² 0 0 -0.01 3
08:00 813 J/kg -2.9 K 0 % 0 % 0 % 0 m²/s² 0 0 -0.47 3
09:00 1108 J/kg -3.5 K 0 % 0 % 0 % 0 m²/s² 0 0 -1.22 3
10:00 875 J/kg -2.9 K 0 % 0 % 0 % 0 m²/s² 0 0 -1.07 3
11:00 470 J/kg -1.7 K 0 % 0 % 0 % 0 m²/s² 0 0 -0.23 3
12:00 357 J/kg -1.3 K 0 % 0 % 0 % 0 m²/s² 0 0 0.17 3
13:00 300 J/kg -1.4 K 0 % 0 % 0 % 0 m²/s² 0 0 0.58 3
14:00 260 J/kg -1.1 K 0 % 0 % 0 % 0 m²/s² 0 0 1.45 2
15:00 239 J/kg -0.8 K 0 % 0 % 0 % 0 m²/s² 0 0 2.05 3
16:00 255 J/kg -0.9 K 0 % 0 % 0 % 0 m²/s² 0 0 1.95 3
17:00 263 J/kg -1.0 K 0 % 0 % 0 % 0 m²/s² 0 0 1.76 3
18:00 158 J/kg -0.8 K 0 % 0 % 0 % 0 m²/s² 0 0 1.84 3
19:00 151 J/kg -0.7 K 0 % 0 % 0 % 0 m²/s² 0 0 1.55 3
20:00 272 J/kg -1.4 K 0 % 0 % 0 % 0 m²/s² 0 0 -0.02 3
21:00 185 J/kg -1.0 K 0 % 0 % 0 % 0 m²/s² 0 0 0.05 3
22:00 165 J/kg -0.7 K 0 % 0 % 0 % 0 m²/s² 0 0 0.08 3
23:00 71 J/kg -0.4 K 0 % 0 % 0 % 0 m²/s² 0 0 0.14 61
 04:30     21:23    Daglengte: 16:53 Woensdag 28 Jul
00:00 65 J/kg -0.2 K 0 % 0 % 0 % 0 m²/s² 0 0 0.1 3
01:00 33 J/kg -0.8 K 0 % 0 % 0 % 0 m²/s² 0 0 -0.5 3
02:00 0 J/kg -1.1 K 0 % 0 % 0 % 0 m²/s² 0 0 -0.92 61
03:00 8 J/kg -1.0 K 0 % 0 % 0 % 0 m²/s² 0 0 -0.88 61
04:00 23 J/kg -0.7 K 0 % 0 % 0 % 0 m²/s² 0 0 -0.61 80
05:00 39 J/kg -1.1 K 0 % 0 % 0 % 0 m²/s² 0 0 -0.71 95
06:00 50 J/kg -2.2 K 0 % 0 % 0 % 0 m²/s² 0 0 -2.17 95
07:00 97 J/kg -2.6 K 0 % 0 % 0 % 0 m²/s² 0 0 -2.21 80
08:00 72 J/kg -1.6 K 0 % 0 % 0 % 0 m²/s² 0 0 -1.15 3
09:00 142 J/kg -1.6 K 0 % 0 % 0 % 0 m²/s² 0 0 -1.51 80
10:00 432 J/kg -1.7 K 0 % 0 % 0 % 0 m²/s² 0 0 -1.43 80
11:00 653 J/kg -2.4 K 0 % 0 % 0 % 0 m²/s² 0 0 -1.92 80
12:00 892 J/kg -3.1 K 0 % 0 % 0 % 0 m²/s² 0 0 -2.53 80
13:00 962 J/kg -3.4 K 0 % 0 % 0 % 0 m²/s² 0 0 -2.68 80
14:00 903 J/kg -3.4 K 0 % 0 % 0 % 0 m²/s² 0 0 -2.62 80
15:00 529 J/kg -2.3 K 0 % 0 % 0 % 0 m²/s² 0 0 -1.4 3
16:00 932 J/kg -3.3 K 0 % 0 % 0 % 0 m²/s² 0 0 -1.59 3
17:00 959 J/kg -3.3 K 0 % 0 % 0 % 0 m²/s² 0 0 -0.84 3
18:00 974 J/kg -3.4 K 0 % 0 % 0 % 0 m²/s² 0 0 -0.58 2
19:00 540 J/kg -2.4 K 0 % 0 % 0 % 0 m²/s² 0 0 1.23 1
20:00 342 J/kg -1.6 K 0 % 0 % 0 % 0 m²/s² 0 0 0.83 3
21:00 335 J/kg -1.7 K 0 % 0 % 0 % 0 m²/s² 0 0 -0.65 2
22:00 179 J/kg -1.2 K 0 % 0 % 0 % 0 m²/s² 0 0 -0.15 2
23:00 37 J/kg -0.6 K 0 % 0 % 0 % 0 m²/s² 0 0 1.17 2
 04:33     21:21    Daglengte: 16:48 Donderdag 29 Jul
00:00 5 J/kg -1.0 K 0 % 0 % 0 % 0 m²/s² 0 0 0.47 1
01:00 4 J/kg -0.6 K 0 % 0 % 0 % 0 m²/s² 0 0 0.75 2
02:00 0 J/kg -0.6 K 0 % 0 % 0 % 0 m²/s² 0 0 1.05 1
03:00 8 J/kg -0.1 K 0 % 0 % 0 % 0 m²/s² 0 0 1.16 1
04:00 0 J/kg 1.4 K 0 % 0 % 0 % 0 m²/s² 0 0 2.33 1
05:00 0 J/kg 1.9 K 0 % 0 % 0 % 0 m²/s² 0 0 2.98 1
06:00 0 J/kg 1.3 K 0 % 0 % 0 % 0 m²/s² 0 0 2.44 3
07:00 22 J/kg 0.4 K 0 % 0 % 0 % 0 m²/s² 0 0 2.05 3
08:00 238 J/kg -0.9 K 0 % 0 % 0 % 0 m²/s² 0 0 0.39 3
09:00 343 J/kg -1.7 K 0 % 0 % 0 % 0 m²/s² 0 0 0.37 3
10:00 340 J/kg -1.6 K 0 % 0 % 0 % 0 m²/s² 0 0 0.41 3
11:00 392 J/kg -1.8 K 0 % 0 % 0 % 0 m²/s² 0 0 0.18 3
12:00 449 J/kg -1.7 K 0 % 0 % 0 % 0 m²/s² 0 0 0.16 95
13:00 469 J/kg -1.3 K 0 % 0 % 0 % 0 m²/s² 0 0 0.62 80
14:00 429 J/kg -1.1 K 0 % 0 % 0 % 0 m²/s² 0 0 1.66 3
Temp Baro Wind Neerslag
  EWN Forecast EWN WRFDA DWD ICON FMI HIRLAM MET Norway GFS
 04:26     21:28    Daglengte: 17:02 Vandaag
17:00 26.2° 1017.2 hPa 4.0 m/s 0.0 mm 24.6° 1016.8 hPa 4.6 m/s 0.0 mm 26.3° 1017.2 hPa 3.8 m/s -2.0 mm 26.1° 1017.5 hPa 3.8 m/s 0.0 mm 24.7° 1017.5 hPa 4.4 m/s
20:00 22.9° 1016.6 hPa 2.9 m/s 0.0 mm 21.1° 1016.2 hPa 2.1 m/s 0.0 mm 23.0° 1016.4 hPa 2.8 m/s 0.0 mm 22.7° 1017.0 hPa 2.3 m/s 0.0 mm 21.2° 1016.6 hPa 3.1 m/s
23:00 19.6° 1016.7 hPa 2.2 m/s 0.0 mm 18.1° 1015.6 hPa 3.1 m/s 0.0 mm 19.6° 1016.7 hPa 1.7 m/s 0.0 mm 18.3° 1017.1 hPa 1.8 m/s 0.0 mm 17.9° 1016.5 hPa 2.8 m/s
 04:28     21:25    Daglengte: 16:57 Morgen
02:00 18.9° 1015.5 hPa 2.1 m/s 0.0 mm 18.5° 1014.3 hPa 3.9 m/s 0.0 mm 19.0° 1015.5 hPa 1.3 m/s 0.0 mm 17.1° 1016.0 hPa 1.8 m/s 0.0 mm 17.9° 1015.3 hPa 3.1 m/s
05:00 19.4° 1014.1 hPa 2.6 m/s 0.0 mm 18.5° 1013.0 hPa 3.8 m/s 0.0 mm 19.9° 1014.0 hPa 2.3 m/s 0.0 mm 17.3° 1014.9 hPa 2.3 m/s 0.0 mm 19.1° 1014.2 hPa 3.5 m/s
08:00 22.4° 1013.2 hPa 3.4 m/s 0.0 mm 23.3° 1012.2 hPa 4.2 m/s 0.0 mm 22.8° 1013.1 hPa 3.5 m/s 0.0 mm 20.7° 1014.1 hPa 2.8 m/s 0.0 mm 23.4° 1013.4 hPa 4.0 m/s
11:00 27.5° 1012.5 hPa 4.4 m/s 0.0 mm 27.3° 1011.5 hPa 5.9 m/s 0.0 mm 26.6° 1012.5 hPa 4.2 m/s 0.0 mm 28.6° 1013.3 hPa 4.1 m/s 0.0 mm 25.9° 1012.7 hPa 4.6 m/s
14:00 27.4° 1011.6 hPa 4.7 m/s 0.0 mm 27.8° 1010.8 hPa 6.1 m/s 0.0 mm 27.6° 1011.2 hPa 4.4 m/s 0.0 mm 28.4° 1012.6 hPa 3.7 m/s 0.0 mm 26.1° 1011.8 hPa 5.1 m/s
17:00 25.7° 1011.2 hPa 4.6 m/s 0.0 mm 26.5° 1009.8 hPa 5.6 m/s 0.0 mm 26.1° 1010.0 hPa 4.4 m/s 0.0 mm 28.1° 1011.6 hPa 4.5 m/s 0.0 mm 25.2° 1011.2 hPa 5.5 m/s
20:00 23.3° 1010.3 hPa 3.7 m/s 0.0 mm 23.6° 1008.6 hPa 3.9 m/s 0.0 mm 23.8° 1009.5 hPa 3.0 m/s 0.0 mm 25.1° 1010.8 hPa 3.6 m/s 0.0 mm 20.2° 1010.6 hPa 4.4 m/s
23:00 20.6° 1009.5 hPa 2.2 m/s 0.0 mm 20.6° 1007.3 hPa 2.5 m/s 0.0 mm 21.3° 1008.3 hPa 0.4 m/s 0.2 mm 20.8° 1010.0 hPa 2.2 m/s 0.0 mm 18.0° 1010.3 hPa 3.0 m/s
 04:30     21:23    Daglengte: 16:53 Woensdag 28 Jul
02:00 19.0° 1008.2 hPa 1.9 m/s 0.0 mm 19.3° 1004.9 hPa 3.9 m/s 0.0 mm 20.5° 1007.0 hPa 1.0 m/s 0.1 mm 18.7° 1008.7 hPa 1.5 m/s 0.0 mm 18.0° 1009.0 hPa 2.5 m/s
05:00 18.9° 1006.7 hPa 1.6 m/s 0.0 mm 18.9° 1002.6 hPa 3.1 m/s 35.1 mm 19.8° 1005.3 hPa 1.2 m/s 3.2 mm 18.2° 1007.3 hPa 1.3 m/s 0.0 mm 17.4° 1007.0 hPa 1.8 m/s
08:00 19.8° 1005.7 hPa 1.8 m/s 0.0 mm 18.8° 1001.0 hPa 2.6 m/s 82.5 mm 19.9° 1003.8 hPa 1.2 m/s 2.3 mm 20.3° 1006.5 hPa 1.7 m/s 0.0 mm 19.7° 1006.1 hPa 1.8 m/s
11:00 21.1° 1003.8 hPa 3.2 m/s 12.7 mm 22.4° 1001.0 hPa 4.8 m/s 88.4 mm 20.9° 1003.4 hPa 3.1 m/s 1.7 mm 23.1° 1005.2 hPa 2.7 m/s
14:00 22.2° 1003.8 hPa 4.3 m/s 19.1 mm 23.5° 1001.6 hPa 5.8 m/s 89.7 mm 21.2° 1003.5 hPa 4.5 m/s 1.5 mm 24.0° 1004.6 hPa 2.9 m/s
17:00 22.6° 1003.6 hPa 3.7 m/s 27.3 mm 24.7° 1001.7 hPa 5.0 m/s 91.1 mm 22.6° 1003.4 hPa 3.9 m/s 0.1 mm 24.4° 1004.1 hPa 3.3 m/s
20:00 22.1° 1002.7 hPa 2.0 m/s 10.8 mm 23.2° 1001.1 hPa 2.6 m/s 92.7 mm 22.4° 1002.4 hPa 1.6 m/s 0.0 mm 22.0° 1003.2 hPa 2.3 m/s
23:00 19.0° 1002.6 hPa 2.1 m/s 10.4 mm 18.7° 1001.5 hPa 3.2 m/s 92.7 mm 19.3° 1002.2 hPa 1.8 m/s 0.0 mm 19.2° 1003.6 hPa 2.9 m/s
 04:33     21:21    Daglengte: 16:48 Donderdag 29 Jul
02:00 17.3° 1002.4 hPa 2.3 m/s 0.0 mm 15.6° 1002.4 hPa 2.3 m/s 92.7 mm 17.4° 1000.9 hPa 1.9 m/s 0.0 mm 17.2° 1002.9 hPa 3.2 m/s
05:00 16.1° 1001.5 hPa 2.2 m/s 0.0 mm 15.3° 1001.5 hPa 2.5 m/s 92.7 mm 15.9° 999.6 hPa 1.7 m/s 0.0 mm 16.7° 1002.5 hPa 3.3 m/s
08:00 18.6° 1001.3 hPa 2.7 m/s 0.0 mm 19.4° 1001.8 hPa 3.8 m/s 92.7 mm 18.1° 998.1 hPa 2.7 m/s 0.0 mm 18.9° 1001.5 hPa 3.9 m/s
11:00 20.3° 997.7 hPa 4.1 m/s 10.4 mm 22.4° 1001.2 hPa 5.0 m/s 92.7 mm 19.8° 996.8 hPa 3.8 m/s 0.1 mm 22.7° 1000.4 hPa 4.3 m/s
14:00 21.0° 996.6 hPa 4.0 m/s 32.2 mm 22.7° 1000.2 hPa 5.1 m/s 93.9 mm 20.6° 995.8 hPa 3.7 m/s 1.4 mm 21.4° 999.1 hPa 5.1 m/s
17:00 17.0° 997.8 hPa 5.9 m/s 8.7 mm 17.0° 997.8 hPa 5.9 m/s 8.7 mm
20:00 15.5° 996.7 hPa 4.5 m/s 9.3 mm 15.5° 996.7 hPa 4.5 m/s 9.3 mm
23:00 13.1° 995.6 hPa 4.7 m/s 9.9 mm 13.1° 995.6 hPa 4.7 m/s 9.9 mm
 04:35     21:19    Daglengte: 16:44 Vrijdag 30 Jul
02:00 11.9° 993.7 hPa 3.5 m/s 10.0 mm 11.9° 993.7 hPa 3.5 m/s 10.0 mm
05:00 11.2° 992.7 hPa 3.8 m/s 10.1 mm 11.2° 992.7 hPa 3.8 m/s 10.1 mm
08:00 12.7° 991.4 hPa 2.9 m/s 11.6 mm 12.7° 991.4 hPa 2.9 m/s 11.6 mm
11:00 14.2° 991.5 hPa 3.3 m/s 13.3 mm 14.2° 991.5 hPa 3.3 m/s 13.3 mm
14:00 16.3° 991.9 hPa 4.8 m/s 14.7 mm 16.3° 991.9 hPa 4.8 m/s 14.7 mm
17:00 19.1° 992.6 hPa 3.9 m/s 15.0 mm 19.1° 992.6 hPa 3.9 m/s 15.0 mm
20:00 18.5° 993.3 hPa 3.0 m/s 15.1 mm 18.5° 993.3 hPa 3.0 m/s 15.1 mm
23:00 15.0° 994.5 hPa 3.1 m/s 15.2 mm 15.0° 994.5 hPa 3.1 m/s 15.2 mm
 04:37     21:16    Daglengte: 16:39 Zaterdag 31 Jul
02:00 14.3° 995.7 hPa 2.6 m/s 15.2 mm 14.3° 995.7 hPa 2.6 m/s 15.2 mm
05:00 13.0° 996.9 hPa 2.5 m/s 15.2 mm 13.0° 996.9 hPa 2.5 m/s 15.2 mm
08:00 16.3° 998.2 hPa 2.2 m/s 15.2 mm 16.3° 998.2 hPa 2.2 m/s 15.2 mm
11:00 19.9° 998.8 hPa 3.0 m/s 15.2 mm 19.9° 998.8 hPa 3.0 m/s 15.2 mm
14:00 22.4° 998.8 hPa 3.3 m/s 15.2 mm 22.4° 998.8 hPa 3.3 m/s 15.2 mm
17:00 22.4° 998.9 hPa 1.3 m/s 15.2 mm 22.4° 998.9 hPa 1.3 m/s 15.2 mm
20:00 20.0° 999.0 hPa 1.9 m/s 15.2 mm 20.0° 999.0 hPa 1.9 m/s 15.2 mm
23:00 15.8° 999.1 hPa 2.5 m/s 15.2 mm 15.8° 999.1 hPa 2.5 m/s 15.2 mm
 04:39     21:14    Daglengte: 16:35 Zondag 01 Aug
02:00 15.6° 998.5 hPa 2.2 m/s 15.2 mm 15.6° 998.5 hPa 2.2 m/s 15.2 mm
05:00 13.9° 997.3 hPa 1.7 m/s 15.2 mm 13.9° 997.3 hPa 1.7 m/s 15.2 mm
08:00 14.7° 996.5 hPa 2.1 m/s 16.5 mm 14.7° 996.5 hPa 2.1 m/s 16.5 mm
11:00 14.8° 996.4 hPa 2.4 m/s 21.8 mm 14.8° 996.4 hPa 2.4 m/s 21.8 mm
14:00 16.7° 997.1 hPa 3.4 m/s 22.9 mm 16.7° 997.1 hPa 3.4 m/s 22.9 mm
17:00 17.8° 997.7 hPa 3.6 m/s 23.6 mm 17.8° 997.7 hPa 3.6 m/s 23.6 mm
20:00 16.3° 998.2 hPa 2.5 m/s 24.8 mm 16.3° 998.2 hPa 2.5 m/s 24.8 mm
23:00 13.0° 999.0 hPa 3.7 m/s 24.9 mm 13.0° 999.0 hPa 3.7 m/s 24.9 mm
 04:41     21:11    Daglengte: 16:30 Maandag 02 Aug
02:00 11.5° 998.6 hPa 3.6 m/s 24.9 mm 11.5° 998.6 hPa 3.6 m/s 24.9 mm
05:00 10.6° 998.3 hPa 3.6 m/s 24.9 mm 10.6° 998.3 hPa 3.6 m/s 24.9 mm
08:00 14.3° 997.5 hPa 4.3 m/s 24.9 mm 14.3° 997.5 hPa 4.3 m/s 24.9 mm
11:00 18.2° 996.9 hPa 4.7 m/s 24.9 mm 18.2° 996.9 hPa 4.7 m/s 24.9 mm
14:00 19.1° 996.5 hPa 4.8 m/s 25.0 mm 19.1° 996.5 hPa 4.8 m/s 25.0 mm
20:00 16.5° 997.4 hPa 5.5 m/s 26.0 mm 16.5° 997.4 hPa 5.5 m/s 26.0 mm
 04:44     21:09    Daglengte: 16:25 Dinsdag 03 Aug
02:00 10.4° 1000.4 hPa 3.2 m/s 26.0 mm 10.4° 1000.4 hPa 3.2 m/s 26.0 mm
08:00 13.0° 1001.7 hPa 2.7 m/s 26.0 mm 13.0° 1001.7 hPa 2.7 m/s 26.0 mm
14:00 18.3° 1001.2 hPa 6.0 m/s 26.9 mm 18.3° 1001.2 hPa 6.0 m/s 26.9 mm
20:00 15.7° 1003.5 hPa 3.9 m/s 27.0 mm 15.7° 1003.5 hPa 3.9 m/s 27.0 mm
 04:46     21:07    Daglengte: 16:21 Woensdag 04 Aug
02:00 11.5° 1005.3 hPa 4.4 m/s 27.1 mm 11.5° 1005.3 hPa 4.4 m/s 27.1 mm
08:00 15.0° 1006.3 hPa 5.4 m/s 27.1 mm 15.0° 1006.3 hPa 5.4 m/s 27.1 mm
14:00 18.5° 1005.8 hPa 5.0 m/s 28.2 mm 18.5° 1005.8 hPa 5.0 m/s 28.2 mm
20:00 15.9° 1003.2 hPa 4.6 m/s 30.0 mm 15.9° 1003.2 hPa 4.6 m/s 30.0 mm
 04:48     21:04    Daglengte: 16:16 Donderdag 05 Aug
02:00 14.8° 1001.3 hPa 4.6 m/s 30.4 mm 14.8° 1001.3 hPa 4.6 m/s 30.4 mm
08:00 16.3° 998.6 hPa 4.9 m/s 30.8 mm 16.3° 998.6 hPa 4.9 m/s 30.8 mm
14:00 20.1° 1007.6 hPa 1.8 m/s 1.3 mm
20:00 17.4° 1007.1 hPa 1.6 m/s 1.2 mm
 04:50     21:02    Daglengte: 16:12 Vrijdag 06 Aug
02:00 13.8° 1007.4 hPa 0.8 m/s 0.4 mm
08:00 16.2° 1007.2 hPa 0.4 m/s 0.3 mm
14:00 20.5° 1006.8 hPa 1.7 m/s 1.0 mm
20:00 17.7° 1005.7 hPa 1.5 m/s 1.5 mm
 04:53     20:59    Daglengte: 16:06 Zaterdag 07 Aug
02:00 14.6° 1005.5 hPa 0.2 m/s 0.6 mm
08:00 16.3° 1004.8 hPa 0.5 m/s 1.0 mm
14:00 20.2° 1004.7 hPa 1.4 m/s 1.5 mm
20:00 17.6° 1004.5 hPa 0.9 m/s 0.5 mm
 04:55     20:56    Daglengte: 16:01 Zondag 08 Aug
02:00 14.5° 1004.5 hPa 0.6 m/s 0.6 mm
08:00 16.5° 1004.2 hPa 0.6 m/s 1.4 mm
14:00 21.0° 1004.7 hPa 1.4 m/s 1.2 mm
20:00 17.9° 1004.9 hPa 1.3 m/s 0.9 mm
 04:57     20:54    Daglengte: 15:57 Maandag 09 Aug
02:00 14.4° 1005.6 hPa 0.7 m/s 0.6 mm
08:00 16.0° 1005.9 hPa 0.7 m/s 0.2 mm
14:00 20.4° 1006.5 hPa 1.3 m/s 1.2 mm
20:00 17.5° 1006.5 hPa 1.1 m/s 0.7 mm
 05:00     20:51    Daglengte: 15:51 Dinsdag 10 Aug
02:00 13.9° 1007.2 hPa 1.2 m/s 0.6 mm
08:00 15.6° 1007.3 hPa 1.4 m/s 0.6 mm
14:00 20.0° 1008.1 hPa 0.8 m/s 0.9 mm
FMI Hirlam - 7.5 km EWN WRFDA - 12 km DWD ICON - 7 km GFS - 25 km Basiskaart